sat.trackr.live / text

‹ back to catalog

STARLINK-3930

NORAD 52568 · 2022-051AM

PAYLOAD ACTIVE UNKNOWN

§ Identity

Operator
Country
US
Launch date
2022-05-13
Launch site
AFWTR
Launch vehicle
Mass (kg)
RCS (m²)

Purposes: comms

External: N2YO · Heavens-Above · Gunter

§ Orbital elements

Epoch: 2026-05-25T03:12:27.137952Z

Period
95.44 min
Inclination
53.2131°
Eccentricity
0.0001072
Mean motion
15.08851675 rev/d
Perigee alt
539.0 km
Apogee alt
540.4 km
Semi-major
6,917.8 km
B*
-1.6879e-4
RAAN
135.9477°
Arg perigee
76.3429°
Mean anomaly
283.7682°
Rev number
22,312

§ Raw data

STARLINK-39301 52568U 22051AM  26145.13364743 -.00002974  00000+0 -16879-3 0  99922 52568  53.2131 135.9477 0001072  76.3429 283.7682 15.08851675223122

JSON: /api/v1/satellites/52568 · /tle

For live sub-satellite position, see the globe view (requires WebGL).

§ Visibility from observer

Set your observer location to see the next 7 days of passes ≥ 10°. The values pass through the URL so the page stays shareable.

No JS? Fill the form by hand. The geolocation button needs JavaScript.